Simultaneous Nadir Overpasses (SNOs) Predictions

Prediction of SNOs between LANDSAT-8 and NOAA-19 Satellite Orbit:

Table of predicted SNOs for the next 14.0 days since TLE Epoch: 6/17/2023
Index Date (LANDSAT-8) Time (LANDSAT-8) Lat,Lon (LANDSAT-8) SZA (LANDSAT-8 ) Date (NOAA-19) Time (NOAA-19) Lat,Lon (NOAA-19) SZA (NOAA-19 ) Distance(km) Time Diff (sec)
1 06/17/2023 16:41:02 80.95, -32.76 59.51 06/17/2023 16:40:52 80.94, -32.93 59.48 3.21 10
2 06/19/2023 23:04:13 80.95,-128.63 59.44 06/19/2023 23:04:21 80.94,-128.73 59.43 1.72 8
3 06/22/2023 04:37:58 -80.93, -32.32 120.63 06/22/2023 04:36:48 -80.94, -32.21 120.63 2.42 70
4 06/22/2023 05:27:24 80.93, 135.38 59.39 06/22/2023 05:27:50 80.94, 135.40 59.41 1.41 26
5 06/24/2023 11:01:08 -80.93,-128.04 120.60 06/24/2023 11:00:16 -80.94,-127.92 120.60 2.28 52
6 06/24/2023 11:50:33 80.96, 39.99 59.46 06/24/2023 11:51:18 80.94, 39.83 59.46 3.37 45
7 06/26/2023 17:24:17 -80.95, 136.49 120.50 06/26/2023 17:23:44 -80.94, 136.31 120.54 3.36 33
8 06/26/2023 18:13:43 80.96, -55.85 59.51 06/26/2023 18:14:46 80.95, -55.81 59.53 1.42 63



Historial Predications of SNOs between LANDSAT-8 and NOAA-19
